Location: Gwatt
(46.7204°N, 7.6223°E)
Time: 16:12:00
(UTC+00:00)

MOS 1 Rocket - Pass Details

Date: 18 September 2020
Orbit: 614 x 831 km, 97.4° (Epoch: 30 October)

Event Time Altitude Azimuth Distance (km) Brightness Sun altitude
Rises 18:57:17 0° 10° (N) 3,034 6.7 -14.7°
Reaches altitude 10° 18:59:35 10° 8° (N) 2,086 5.9 -15.1°
Maximum altitude 19:04:04 70° 286° (WNW) 682 3.4 -15.8°
Drops below altitude 10° 19:08:21 10° 203° (SSW) 1,987 5.7 -16.5°
Sets 19:10:30 0° 201° (SSW) 2,877 6.5 -16.9°
